Regional Weather Roundup
Issued by NWS Sioux Falls, SD

Home | Current Version | Previous Version | Graphics & Text | Print | Product List | Glossary On
Versions: 1 2 3 4 5 6 7 8 9 10 11 12 13 14 15 16 17 18 19 20 21 22 23 24 25 26 27 28 29 30 31 32 33 34 35 36 37 38 39 40 41 42 43 44 45 46 47 48 49 50
000
ASUS43 KFSD 281810
RWRFSD

WEATHER ROUNDUP FOR SE SOUTH DAKOTA/SW MINNESOTA/NW IOWA
NATIONAL WEATHER SERVICE SIOUX FALLS SD
1200 PM CST SAT FEB 28 2015

NOTE: "FAIR" INDICATES FEW OR NO CLOUDS BELOW 12,000 FEET WITH NO
SIGNIFICANT WEATHER AND OR OBSTRUCTIONS TO VISIBILITY.


SDZ038>040-050-052>070-281900-
SOUTHEAST SOUTH DAKOTA

CITY           SKY/WX    TMP DP  RH WIND       PRES   REMARKS
CHAMBERLAIN    MOSUNNY   28   9  45 SW15G21   30.19F WCI  16
6HR MIN TEMP:   8; 6HR MAX TEMP:  28;

HURON          MOSUNNY   24  11  57 S17G23    30.24F WCI  11
6HR MIN TEMP:   5; 6HR MAX TEMP:  24;

MADISON        MOCLDY    18  14  86 S20G26    30.27F WCI   1
MITCHELL       PTSUNNY   27   8  44 S16G25    30.28F WCI  15
6HR MIN TEMP:   7; 6HR MAX TEMP:  27;

SIOUX FALLS    MOSUNNY   19   9  65 S20       30.33F WCI   3
6HR MIN TEMP:   4; 6HR MAX TEMP:  19;

WINNER         FAIR      29   8  41 SW14      30.17F WCI  18
YANKTON        MOSUNNY   25   9  50 S17G24    30.35F WCI  11
$$

MNZ071-072-080-081-089-090-097-098-281900-
SOUTHWEST MINNESOTA

CITY           SKY/WX    TMP DP  RH WIND       PRES   REMARKS
FAIRMONT       SUNNY     14   7  73 S20       30.43F WCI  -3
JACKSON        SUNNY     18   9  68 S15       30.40F WCI   3
LUVERNE        SUNNY     21  10  63 S21       30.36F WCI   6
MARSHALL       MOSUNNY   19   7  58 S23       30.37F WCI   2
6HR MIN TEMP:   3; 6HR MAX TEMP:  19;

MONTEVIDEO     MOSUNNY   23  10  58 SW16G22   30.36F WCI  10
PIPESTONE      SUNNY     18  10  73 SW18      30.31S WCI   2
REDWOOD FALLS  SUNNY     19   7  59 S21G26    30.40F WCI   3
TRACY          MOSUNNY   21   8  59 S14G24    30.36F WCI   8
WINDOM         SUNNY     18   7  62 S14G23    30.38F WCI   4
WORTHINGTON    SUNNY     19   9  63 S22       30.37F WCI   3
$$

IAZ001>003-012>014-020>022-031-032-NEZ013-014-SDZ071-281900-
NORTHWEST IOWA

CITY           SKY/WX    TMP DP  RH WIND       PRES   REMARKS
CHEROKEE       SUNNY     18   7  62 S14       30.42F WCI   4
DENISON        MOSUNNY   19   9  63 S12       30.43F WCI   7
ESTHERVILLE    SUNNY     14   7  73 S20       30.43F WCI  -3
LE MARS        SUNNY     19  10  68 S14G21    30.41F WCI   6
ORANGE CITY    SUNNY     19  10  68 S18G24    30.37F WCI   4
SHELDON        SUNNY     18   7  62 S17G26    30.37F WCI   2
SIOUX CITY     PTSUNNY   23  12  62 S18       30.42F WCI   9
6HR MIN TEMP:   2; 6HR MAX TEMP:  24;

SPENCER        MOSUNNY   17   7  64 S15       30.42F WCI   2
6HR MIN TEMP:  -4; 6HR MAX TEMP:  17;

STORM LAKE     SUNNY     16   7  67 S13       30.42F WCI   2
$$

ABBREVIATIONS USED IN REMARKS
   TC - TEMPERATURE IN CELSIUS
  WCI - WIND CHILL INDEX
   HX - HEAT INDEX
  VSB - VISIBILITY




USA.gov is the U.S. government's official web portal to all federal, state and local government web resources and services.